0610300051,2005,01,01,08,2.2
0610300051,2005,01,01,09,2.37
0610300051,2005,01,01,10,2.4
0610300051,2005,01,01,11,2.55
0610300051,2005,01,01,12,2.52
0610300051,2005,01,01,13,2.7
0610300051,2005,01,01,14,2.61
0610300051,2005,01,01,15,2.58
0610300051,2005,01,01,16,2.31
0610300051,2005,01,01,17,2.02
0610300051,2005,01,01,18,2
0610300051,2005,01,01,19,1.88
0610300051,2005,01,01,20,1.98
0610300051,2005,01,01,21,2.35
0610300051,2005,01,01,22,2.35
0610300051,2005,01,01,23,1.83
0610300051,2005,01,02,00,1.36
0610300051,2005,01,02,01,0.54
0610300051,2005,01,02,02,5.02
0610300051,2005,01,02,03,1.43
0610300051,2005,01,02,04,1.27
0610300051,2005,01,02,05,1.12
0610300051,2005,01,02,06,0.91
0610300051,2005,01,02,07,1.48
0610300051,2005,01,02,08,2.17
0610300051,2005,01,02,09,2.18
0610300051,2005,01,02,10,2
0610300051,2005,01,02,11,1.36
0610300051,2005,01,02,12,1.5
0610300051,2005,01,02,13,2.23
0610300051,2005,01,02,14,2.32
0610300051,2005,01,02,15,2.44
0610300051,2005,01,02,16,1.46
0610300051,2005,01,02,17,1.02
0610300051,2005,01,02,18,0.76
0610300051,2005,01,02,19,0.74
0610300051,2005,01,02,20,0.71
0610300051,2005,01,02,21,0.77
0610300051,2005,01,02,22,0.67
0610300051,2005,01,02,23,0.77
0610300051,2005,01,03,00,0.92
0610300051,2005,01,03,01,0.86
0610300051,2005,01,03,02,3.64
0610300051,2005,01,03,03,2.32
0610300051,2005,01,03,04,1.41
0610300051,2005,01,03,05,0.93
0610300051,2005,01,03,06,0.28
0610300051,2005,01,03,07,0.2
0610300051,2005,01,03,08,0.68
0610300051,2005,01,03,09,1.01
0610300051,2005,01,03,10,1.12
0610300051,2005,01,03,11,1.31
0610300051,2005,01,03,12,2.19
0610300051,2005,01,03,13,2.38
0610300051,2005,01,03,14,2.12
0610300051,2005,01,03,15,1.55
0610300051,2005,01,03,16,0.49
0610300051,2005,01,03,17,0.97
0610300051,2005,01,03,18,0.34
0610300051,2005,01,03,19,0.68
0610300051,2005,01,03,20,99
0610300051,2005,01,03,21,0.03
0610300051,2005,01,03,22,99
0610300051,2005,01,03,23,99
0610300051,2005,01,04,00,99
0610300051,2005,01,04,01,99
0610300051,2005,01,04,02,99
0610300051,2005,01,04,03,99
0610300051,2005,01,04,04,99
0610300051,2005,01,04,05,99
0610300051,2005,01,04,06,99
0610300051,2005,01,04,07,99
0610300051,2005,01,04,08,2.08
0610300051,2005,01,04,09,2.58
0610300051,2005,01,04,10,2.66
0610300051,2005,01,04,11,2.59
0610300051,2005,01,04,12,2.77
0610300051,2005,01,04,13,2.89
0610300051,2005,01,04,14,2.54
0610300051,2005,01,04,15,1.86
0610300051,2005,01,04,16,1.24
0610300051,2005,01,04,17,1.33
0610300051,2005,01,04,18,0.77
0610300051,2005,01,04,19,99
0610300051,2005,01,04,20,99
0610300051,2005,01,04,21,99
0610300051,2005,01,04,22,99
0610300051,2005,01,04,23,99
0610300051,2005,01,05,00,99
0610300051,2005,01,05,01,99
0610300051,2005,01,05,02,0.12
0610300051,2005,01,05,03,3.52
0610300051,2005,01,05,04,0.69
0610300051,2005,01,05,05,99
0610300051,2005,01,05,06,99
0610300051,2005,01,05,07,99
0610300051,2005,01,05,08,0.82
0610300051,2005,01,05,09,99
0610300051,2005,01,05,10,0.02
0610300051,2005,01,05,11,0.11
0610300051,2005,01,05,12,0.29
0610300051,2005,01,05,13,0.35
0610300051,2005,01,05,14,0.64
0610300051,2005,01,05,15,0.31
0610300051,2005,01,05,16,99
0610300051,2005,01,05,17,99
0610300051,2005,01,05,18,99
0610300051,2005,01,05,19,99
0610300051,2005,01,05,20,99
0610300051,2005,01,05,21,0.04
0610300051,2005,01,05,22,99
0610300051,2005,01,05,23,99
0610300051,2005,01,06,00,99
0610300051,2005,01,06,01,99
0610300051,2005,01,06,02,0.1
0610300051,2005,01,06,03,99
0610300051,2005,01,06,04,99
0610300051,2005,01,06,05,99
0610300051,2005,01,06,06,99
0610300051,2005,01,06,07,99
0610300051,2005,01,06,08,99
0610300051,2005,01,06,09,99
0610300051,2005,01,06,10,0.17
0610300051,2005,01,06,11,0.84
0610300051,2005,01,06,12,1.87
0610300051,2005,01,06,13,2.09
0610300051,2005,01,06,14,2.15
0610300051,2005,01,06,15,1.08
0610300051,2005,01,06,16,0.79
0610300051,2005,01,06,17,0.16
0610300051,2005,01,07,00,99
0610300051,2005,01,07,01,99
0610300051,2005,01,07,02,0.14
0610300051,2005,01,07,03,0.11
0610300051,2005,01,07,04,99
0610300051,2005,01,07,05,1.4
0610300051,2005,01,07,06,1.71
0610300051,2005,01,07,07,1.34
0610300051,2005,01,07,08,1.37
0610300051,2005,01,07,09,1.47
0610300051,2005,01,07,10,0.97
0610300051,2005,01,07,11,0.93
0610300051,2005,01,07,12,1.32
0610300051,2005,01,07,13,1.15
0610300051,2005,01,07,14,1.05
0610300051,2005,01,07,15,1.22
0610300051,2005,01,07,16,0.46
0610300051,2005,01,07,17,99
0610300051,2005,01,07,18,2.73
0610300051,2005,01,07,19,2.51
0610300051,2005,01,07,20,2.59
0610300051,2005,01,07,21,2.64
0610300051,2005,01,07,22,2.79
0610300051,2005,01,07,23,2.92
0610300051,2005,01,08,00,3
0610300051,2005,01,08,01,2.68
0610300051,2005,01,08,02,2.63
0610300051,2005,01,08,03,2.69
0610300051,2005,01,08,04,1.28
0610300051,2005,01,08,05,5.57
0610300051,2005,01,08,06,2.19
0610300051,2005,01,08,07,2.6
0610300051,2005,01,08,08,2.56
0610300051,2005,01,08,09,2.64
0610300051,2005,01,08,10,2.69
0610300051,2005,01,08,11,2.66
0610300051,2005,01,08,12,2.51
0610300051,2005,01,08,13,2.78
0610300051,2005,01,08,14,2.76
0610300051,2005,01,08,15,2.57
0610300051,2005,01,08,16,2.15
0610300051,2005,01,08,17,2.39
0610300051,2005,01,08,18,2.33
0610300051,2005,01,08,19,2.41
0610300051,2005,01,08,20,2.42
0610300051,2005,01,08,21,2.45
0610300051,2005,01,08,22,2.38
0610300051,2005,01,08,23,2.5
0610300051,2005,01,09,00,2.51
0610300051,2005,01,09,01,2.53
0610300051,2005,01,09,02,1.97
0610300051,2005,01,09,03,1.93
0610300051,2005,01,09,04,2.04
0610300051,2005,01,09,05,3.76
0610300051,2005,01,09,06,2.21
0610300051,2005,01,09,07,1.73
0610300051,2005,01,09,08,1.71
0610300051,2005,01,09,09,1.92
0610300051,2005,01,09,10,2.51
0610300051,2005,01,09,11,2.94
0610300051,2005,01,09,12,3.07
0610300051,2005,01,09,13,2.84
0610300051,2005,01,09,14,2.58
0610300051,2005,01,09,15,1.65
0610300051,2005,01,09,16,0.27
0610300051,2005,01,09,17,0.14
0610300051,2005,01,09,18,99
0610300051,2005,01,09,19,99
0610300051,2005,01,09,20,0.29
0610300051,2005,01,09,21,0.25
0610300051,2005,01,09,22,0.19
0610300051,2005,01,09,23,0.86
0610300051,2005,01,10,00,0.49
0610300051,2005,01,10,01,99
0610300051,2005,01,10,02,0.45
0610300051,2005,01,10,03,0.56
0610300051,2005,01,10,04,0.88
0610300051,2005,01,10,05,0.19
0610300051,2005,01,10,06,4.45
0610300051,2005,01,10,07,99
0610300051,2005,01,10,08,0.32
0610300051,2005,01,10,09,1.03
0610300051,2005,01,10,10,1.08
0610300051,2005,01,10,11,1.33
0610300051,2005,01,10,12,1.25
0610300051,2005,01,10,13,1.14
0610300051,2005,01,10,14,0.88
0610300051,2005,01,10,15,0.65
0610300051,2005,01,10,16,0.18
0610300051,2005,01,10,17,0.16
0610300051,2005,01,10,18,0.7
0610300051,2005,01,10,19,0.67
0610300051,2005,01,10,20,1.18
0610300051,2005,01,10,21,1.29
0610300051,2005,01,10,22,1.33
0610300051,2005,01,10,23,1.26
0610300051,2005,01,11,00,1.86
0610300051,2005,01,11,01,1.89
0610300051,2005,01,11,02,2.92
0610300051,2005,01,11,03,2.73
0610300051,2005,01,11,04,1.99
0610300051,2005,01,11,05,1.91
0610300051,2005,01,11,06,3.76
0610300051,2005,01,11,07,1.76
0610300051,2005,01,11,08,1.97
0610300051,2005,01,11,09,1.83
0610300051,2005,01,11,10,2.79
0610300051,2005,01,11,11,3.1
0610300051,2005,01,11,12,2.59
0610300051,2005,01,11,13,2.4
0610300051,2005,01,11,14,2.6
0610300051,2005,01,11,15,2.18
0610300051,2005,01,11,16,0.86
0610300051,2005,01,11,17,0.61
0610300051,2005,01,11,18,99
0610300051,2005,01,11,19,99
0610300051,2005,01,11,20,99
0610300051,2005,01,11,21,99
0610300051,2005,01,11,22,99
0610300051,2005,01,11,23,99
0610300051,2005,01,12,00,99
0610300051,2005,01,12,01,99
0610300051,2005,01,12,02,99
0610300051,2005,01,12,03,99
0610300051,2005,01,12,04,99
0610300051,2005,01,12,05,99
0610300051,2005,01,12,06,99
0610300051,2005,01,12,07,4.53
0610300051,2005,01,12,08,0.41
0610300051,2005,01,12,09,1.15
0610300051,2005,01,12,10,1.37
0610300051,2005,01,12,11,1.71
0610300051,2005,01,12,12,1.68
0610300051,2005,01,12,13,2.25
0610300051,2005,01,12,14,2.3
0610300051,2005,01,12,15,1.46
0610300051,2005,01,12,16,99
0610300051,2005,01,12,17,99
0610300051,2005,01,12,18,99
0610300051,2005,01,12,19,99
0610300051,2005,01,12,20,99
0610300051,2005,01,12,21,99
0610300051,2005,01,12,22,99
0610300051,2005,01,12,23,99
0610300051,2005,01,13,00,99
0610300051,2005,01,13,01,99
0610300051,2005,01,13,02,99
0610300051,2005,01,13,03,99
0610300051,2005,01,13,04,99
0610300051,2005,01,13,05,99
0610300051,2005,01,13,06,99
0610300051,2005,01,13,07,3.56
0610300051,2005,01,13,08,0.44
0610300051,2005,01,13,09,0.23
0610300051,2005,01,13,10,0.89
0610300051,2005,01,13,11,0.79
0610300051,2005,01,13,12,1.01
0610300051,2005,01,13,13,0.98
0610300051,2005,01,13,14,0.43
0610300051,2005,01,13,15,0.03
0610300051,2005,01,13,16,99
0610300051,2005,01,13,17,99
0610300051,2005,01,13,18,99
0610300051,2005,01,13,19,99
0610300051,2005,01,13,20,99
0610300051,2005,01,13,21,99
0610300051,2005,01,13,22,99
0610300051,2005,01,13,23,99
0610300051,2005,01,14,00,99
0610300051,2005,01,14,01,99
0610300051,2005,01,14,02,99
0610300051,2005,01,14,03,99
0610300051,2005,01,14,04,99
0610300051,2005,01,14,05,99
0610300051,2005,01,14,06,99
0610300051,2005,01,14,07,99
0610300051,2005,01,14,08,4.36
0610300051,2005,01,14,09,0.03
0610300051,2005,01,14,10,0.24
0610300051,2005,01,14,11,0.46
0610300051,2005,01,14,12,0.45
0610300051,2005,01,14,13,0.8
0610300051,2005,01,14,14,0.45
0610300051,2005,01,14,15,0.03
0610300051,2005,01,14,16,99
0610300051,2005,01,14,17,99
0610300051,2005,01,14,18,99
0610300051,2005,01,14,19,99
0610300051,2005,01,14,20,99
0610300051,2005,01,14,21,99
0610300051,2005,01,14,22,99
0610300051,2005,01,14,23,99
0610300051,2005,01,15,00,99
0610300051,2005,01,15,01,99
0610300051,2005,01,15,02,99
0610300051,2005,01,15,03,99
0610300051,2005,01,15,04,99
0610300051,2005,01,15,05,99
0610300051,2005,01,15,06,99
0610300051,2005,01,15,07,99
0610300051,2005,01,15,08,3.62
0610300051,2005,01,15,09,0.48
0610300051,2005,01,15,10,99
0610300051,2005,01,15,11,0.07
0610300051,2005,01,15,12,0.01
0610300051,2005,01,15,13,0.16
0610300051,2005,01,15,14,0.15
0610300051,2005,01,15,15,0.1
0610300051,2005,01,15,16,99
0610300051,2005,01,15,17,99
0610300051,2005,01,15,18,99
0610300051,2005,01,15,19,0.01
0610300051,2005,01,15,20,99
0610300051,2005,01,15,21,99
0610300051,2005,01,15,22,99
0610300051,2005,01,15,23,99
0610300051,2005,01,16,00,99
0610300051,2005,01,16,01,99
0610300051,2005,01,16,02,99
0610300051,2005,01,16,03,99
0610300051,2005,01,16,04,99
0610300051,2005,01,16,05,99
0610300051,2005,01,16,06,99
0610300051,2005,01,16,07,99
0610300051,2005,01,16,08,99
0610300051,2005,01,16,09,4.81
0610300051,2005,01,16,10,0.71
0610300051,2005,01,16,11,1.2
0610300051,2005,01,16,12,2.26
0610300051,2005,01,16,13,2.44
0610300051,2005,01,16,14,3.04
0610300051,2005,01,16,15,2.57
0610300051,2005,01,16,16,1.26
0610300051,2005,01,16,17,0.46
0610300051,2005,01,16,18,99
0610300051,2005,01,16,19,99
0610300051,2005,01,16,20,0.86
0610300051,2005,01,16,21,0.84
0610300051,2005,01,16,22,99
0610300051,2005,01,16,23,99
0610300051,2005,01,17,00,0.23
0610300051,2005,01,17,01,99
0610300051,2005,01,17,02,99
0610300051,2005,01,17,03,99
0610300051,2005,01,17,04,99
0610300051,2005,01,17,05,99
0610300051,2005,01,17,06,99
0610300051,2005,01,17,07,99
0610300051,2005,01,17,08,99
0610300051,2005,01,17,09,3.64
0610300051,2005,01,17,10,0.67
0610300051,2005,01,17,11,0.1
0610300051,2005,01,17,12,0.02
0610300051,2005,01,17,13,0.01
0610300051,2005,01,17,14,99
0610300051,2005,01,17,15,99
0610300051,2005,01,17,16,99
0610300051,2005,01,17,17,99
0610300051,2005,01,17,18,99
0610300051,2005,01,17,19,99
0610300051,2005,01,17,20,99
0610300051,2005,01,17,21,99
0610300051,2005,01,17,22,99
0610300051,2005,01,17,23,99
0610300051,2005,01,18,00,99
0610300051,2005,01,18,01,99
0610300051,2005,01,18,02,99
0610300051,2005,01,18,03,99
0610300051,2005,01,18,04,99
0610300051,2005,01,18,05,99
0610300051,2005,01,18,06,99
0610300051,2005,01,18,07,99
0610300051,2005,01,18,08,99
0610300051,2005,01,18,09,0.85
0610300051,2005,01,18,10,99
0610300051,2005,01,18,11,99
0610300051,2005,01,18,12,99
0610300051,2005,01,18,13,99
0610300051,2005,01,18,14,99
0610300051,2005,01,18,15,99
0610300051,2005,01,18,16,99
0610300051,2005,01,18,17,99
0610300051,2005,01,18,18,99
0610300051,2005,01,18,19,99
0610300051,2005,01,18,20,99
0610300051,2005,01,18,21,99
0610300051,2005,01,18,22,99
0610300051,2005,01,18,23,99
0610300051,2005,01,19,00,99
0610300051,2005,01,19,01,99
0610300051,2005,01,19,02,99
0610300051,2005,01,19,03,99
0610300051,2005,01,19,04,99
0610300051,2005,01,19,05,99
0610300051,2005,01,19,06,99
0610300051,2005,01,19,07,99
0610300051,2005,01,19,08,99
0610300051,2005,01,19,09,99
0610300051,2005,01,19,10,3.63
0610300051,2005,01,19,11,0.7
0610300051,2005,01,19,12,0.24
0610300051,2005,01,19,13,0.35
0610300051,2005,01,19,14,0.41
0610300051,2005,01,19,15,0.06
0610300051,2005,01,19,16,99
0610300051,2005,01,19,17,99
0610300051,2005,01,19,18,99
0610300051,2005,01,19,19,99
0610300051,2005,01,19,20,99
0610300051,2005,01,19,21,99
0610300051,2005,01,19,22,99
0610300051,2005,01,19,23,99
0610300051,2005,01,20,00,99
0610300051,2005,01,20,01,99
0610300051,2005,01,20,02,99
0610300051,2005,01,20,03,99
0610300051,2005,01,20,04,99
0610300051,2005,01,20,05,99
0610300051,2005,01,20,06,99
0610300051,2005,01,20,07,99
0610300051,2005,01,20,08,99
0610300051,2005,01,20,09,99
0610300051,2005,01,20,10,99
0610300051,2005,01,20,11,4.5
0610300051,2005,01,20,12,0.18
0610300051,2005,01,20,13,99
0610300051,2005,01,20,14,0.42
0610300051,2005,01,20,15,99
0610300051,2005,01,20,16,99
0610300051,2005,01,20,17,99
0610300051,2005,01,20,18,99
0610300051,2005,01,20,19,99
0610300051,2005,01,20,20,99
0610300051,2005,01,20,21,99
0610300051,2005,01,20,22,99
0610300051,2005,01,20,23,99
0610300051,2005,01,21,00,99
0610300051,2005,01,21,01,99
0610300051,2005,01,21,02,99
0610300051,2005,01,21,03,99
0610300051,2005,01,21,04,99
0610300051,2005,01,21,05,99
0610300051,2005,01,21,06,99
0610300051,2005,01,21,07,99
0610300051,2005,01,21,08,99
0610300051,2005,01,21,09,99
0610300051,2005,01,21,10,0.04
0610300051,2005,01,21,11,3.65
0610300051,2005,01,21,12,1.01
0610300051,2005,01,21,13,0.34
0610300051,2005,01,21,14,0.32
0610300051,2005,01,21,15,0.02
0610300051,2005,01,21,16,99
0610300051,2005,01,21,17,99
0610300051,2005,01,21,18,99
0610300051,2005,01,21,19,99
0610300051,2005,01,21,20,99
0610300051,2005,01,21,21,99
0610300051,2005,01,21,22,99
0610300051,2005,01,21,23,99
0610300051,2005,01,22,00,99
0610300051,2005,01,22,01,99
0610300051,2005,01,22,02,99
0610300051,2005,01,22,03,99
0610300051,2005,01,22,04,99
0610300051,2005,01,22,05,99
0610300051,2005,01,22,06,99
0610300051,2005,01,22,07,99
0610300051,2005,01,22,08,99
0610300051,2005,01,22,09,99
0610300051,2005,01,22,10,99
0610300051,2005,01,22,11,99
0610300051,2005,01,22,12,4.54
0610300051,2005,01,22,13,0.35
0610300051,2005,01,22,14,0.38
0610300051,2005,01,22,15,0.19
0610300051,2005,01,22,16,0.02
0610300051,2005,01,22,17,0.21
0610300051,2005,01,22,18,0.07
0610300051,2005,01,22,19,99
0610300051,2005,01,22,20,99
0610300051,2005,01,22,21,99
0610300051,2005,01,22,22,99
0610300051,2005,01,22,23,99
0610300051,2005,01,23,00,99
0610300051,2005,01,23,01,99
0610300051,2005,01,23,02,99
0610300051,2005,01,23,03,99
0610300051,2005,01,23,04,99
0610300051,2005,01,23,05,99
0610300051,2005,01,23,06,99
0610300051,2005,01,23,07,99
0610300051,2005,01,23,08,99
0610300051,2005,01,23,09,99
0610300051,2005,01,23,10,0.16
0610300051,2005,01,23,11,0.5
0610300051,2005,01,23,12,3.73
0610300051,2005,01,23,13,1.53
0610300051,2005,01,23,14,1
0610300051,2005,01,23,15,0.74
0610300051,2005,01,23,16,99
0610300051,2005,01,23,17,99
0610300051,2005,01,23,18,99
0610300051,2005,01,23,19,99
0610300051,2005,01,23,20,99
0610300051,2005,01,23,21,99
0610300051,2005,01,23,22,99
0610300051,2005,01,23,23,99
0610300051,2005,01,24,00,99
0610300051,2005,01,24,01,99
0610300051,2005,01,24,02,99
0610300051,2005,01,24,03,99
0610300051,2005,01,24,04,99
0610300051,2005,01,24,05,99
0610300051,2005,01,24,06,99
0610300051,2005,01,24,07,99
0610300051,2005,01,24,08,0.86
0610300051,2005,01,24,09,0.05
0610300051,2005,01,24,10,0.49
0610300051,2005,01,24,11,0.33
0610300051,2005,01,24,12,0.04
0610300051,2005,01,24,13,4.69
0610300051,2005,01,24,14,0.55
0610300051,2005,01,24,15,0.12
0610300051,2005,01,24,16,99
0610300051,2005,01,24,17,99
0610300051,2005,01,24,18,99
0610300051,2005,01,24,19,99
0610300051,2005,01,24,20,99
0610300051,2005,01,24,21,99
0610300051,2005,01,24,22,99
0610300051,2005,01,24,23,99
0610300051,2005,01,25,08,99
0610300051,2005,01,25,09,0.19
0610300051,2005,01,25,10,0.5
0610300051,2005,01,25,11,0.72
0610300051,2005,01,25,12,0.89
0610300051,2005,01,25,13,3.74
0610300051,2005,01,25,14,1.87
0610300051,2005,01,25,15,0.71
0610300051,2005,01,25,16,0.21
0610300051,2005,01,25,17,99
0610300051,2005,01,25,18,99
0610300051,2005,01,25,19,99
0610300051,2005,01,25,20,99
0610300051,2005,01,25,21,99
0610300051,2005,01,25,22,0.05
0610300051,2005,01,25,23,1.14
0610300051,2005,01,26,00,0.52
0610300051,2005,01,26,01,0.05
0610300051,2005,01,26,02,0.35
0610300051,2005,01,26,03,0.17
0610300051,2005,01,26,04,99
0610300051,2005,01,26,05,99
0610300051,2005,01,26,06,99
0610300051,2005,01,26,07,99
0610300051,2005,01,26,08,99
0610300051,2005,01,26,09,99
0610300051,2005,01,26,10,1.1
0610300051,2005,01,26,11,1.53
0610300051,2005,01,26,12,1.08
0610300051,2005,01,26,13,0.1
0610300051,2005,01,26,14,4.27
0610300051,2005,01,26,15,99
0610300051,2005,01,26,16,0.31
0610300051,2005,01,26,17,0.19
0610300051,2005,01,26,18,0.56
0610300051,2005,01,26,19,1.1
0610300051,2005,01,26,20,0.8
0610300051,2005,01,26,21,0.91
0610300051,2005,01,26,22,1.02
0610300051,2005,01,26,23,0.52
0610300051,2005,01,27,00,1.16
0610300051,2005,01,27,01,0.88
0610300051,2005,01,27,02,0.84
0610300051,2005,01,27,03,1.36
0610300051,2005,01,27,04,1.52
0610300051,2005,01,27,05,1.78
0610300051,2005,01,27,06,1.4
0610300051,2005,01,27,07,1.12
0610300051,2005,01,27,08,1.12
0610300051,2005,01,27,09,1.83
0610300051,2005,01,27,10,2.2
0610300051,2005,01,27,11,2.32
0610300051,2005,01,27,12,2.73
0610300051,2005,01,27,13,2.54
0610300051,2005,01,27,14,3.89
0610300051,2005,01,27,15,2.16
0610300051,2005,01,27,16,1.47
0610300051,2005,01,27,17,1.7
0610300051,2005,01,27,18,1.7
0610300051,2005,01,27,19,1.11
0610300051,2005,01,27,20,1.57
0610300051,2005,01,27,21,1.9
0610300051,2005,01,27,22,2.47
0610300051,2005,01,27,23,2.81
0610300051,2005,01,28,00,2.69
0610300051,2005,01,28,01,2.85
0610300051,2005,01,28,02,2.69
0610300051,2005,01,28,03,2.53
0610300051,2005,01,28,04,2.76
0610300051,2005,01,28,05,2.59
0610300051,2005,01,28,06,2.25
0610300051,2005,01,28,07,2.21
0610300051,2005,01,28,08,2.33
0610300051,2005,01,28,09,2.55
0610300051,2005,01,28,10,2.66
0610300051,2005,01,28,11,2.54
0610300051,2005,01,28,12,2.79
0610300051,2005,01,28,13,2.92
0610300051,2005,01,28,14,1.42
0610300051,2005,01,28,15,5.18
0610300051,2005,01,28,16,1.66
0610300051,2005,01,28,17,1.53
0610300051,2005,01,28,18,1.71
0610300051,2005,01,28,19,2
0610300051,2005,01,28,20,1.77
0610300051,2005,01,28,21,1.1
0610300051,2005,01,28,22,0.47
0610300051,2005,01,28,23,99
0610300051,2005,01,29,00,99
0610300051,2005,01,29,01,99
0610300051,2005,01,29,02,99
0610300051,2005,01,29,03,99
0610300051,2005,01,29,04,99
0610300051,2005,01,29,05,0.21
0610300051,2005,01,29,06,0.43
0610300051,2005,01,29,07,0.37
0610300051,2005,01,29,08,1.05
0610300051,2005,01,29,09,1.4
0610300051,2005,01,29,10,2.27
0610300051,2005,01,29,11,2.57
0610300051,2005,01,29,12,2.66
0610300051,2005,01,29,13,2.93
0610300051,2005,01,29,14,2.76
0610300051,2005,01,29,15,3.94
0610300051,2005,01,29,16,1.85
0610300051,2005,01,29,17,1.3
0610300051,2005,01,29,18,1.39
0610300051,2005,01,29,19,1.8
0610300051,2005,01,29,20,1.43
0610300051,2005,01,29,21,1.42
0610300051,2005,01,29,22,0.69
0610300051,2005,01,29,23,1.19
0610300051,2005,01,30,00,0.77
0610300051,2005,01,30,01,0.2
0610300051,2005,01,30,02,0.54
0610300051,2005,01,30,03,0.77
0610300051,2005,01,30,04,0.88
0610300051,2005,01,30,05,0.64
0610300051,2005,01,30,06,99
0610300051,2005,01,30,07,0.43
0610300051,2005,01,30,08,0.98
0610300051,2005,01,30,09,1.45
0610300051,2005,01,30,10,1.72
0610300051,2005,01,30,11,2.44
0610300051,2005,01,30,12,2.86
0610300051,2005,01,30,13,3.04
0610300051,2005,01,30,14,2.99
0610300051,2005,01,30,15,1.32
0610300051,2005,01,30,16,5.44
0610300051,2005,01,30,17,1.76
0610300051,2005,01,30,18,0.64
0610300051,2005,01,30,19,0.09
0610300051,2005,01,30,20,99
0610300051,2005,01,30,21,0.45
0610300051,2005,01,30,22,1.07
0610300051,2005,01,30,23,1.5
0610300051,2005,01,31,00,0.97
0610300051,2005,01,31,01,0.77
0610300051,2005,01,31,02,0.28
0610300051,2005,01,31,03,99
0610300051,2005,01,31,04,0.13
0610300051,2005,01,31,05,0.11
0610300051,2005,01,31,06,99
0610300051,2005,01,31,07,99
0610300051,2005,01,31,08,1.15
0610300051,2005,01,31,09,1.13
0610300051,2005,01,31,10,1.11
0610300051,2005,01,31,11,1.87
0610300051,2005,01,31,12,2.94
0610300051,2005,01,31,13,2.87
0610300051,2005,01,31,14,2.84
0610300051,2005,01,31,15,2.63
0610300051,2005,01,31,16,3.97
0610300051,2005,01,31,17,2.44
0610300051,2005,01,31,18,1.98
0610300051,2005,01,31,19,2.13
0610300051,2005,01,31,20,0.33
0610300051,2005,01,31,21,0.14
0610300051,2005,01,31,22,0.65
0610300051,2005,01,31,23,0.31
0610300051,2005,02,01,00,1.12
0610300051,2005,02,01,01,2.18
0610300051,2005,02,01,02,1.85
0610300051,2005,02,01,03,2.24
0610300051,2005,02,01,04,2.7
0610300051,2005,02,01,05,1.71
0610300051,2005,02,01,06,1.49
0610300051,2005,02,01,07,2.47
0610300051,2005,02,01,08,2.25
0610300051,2005,02,01,09,2.46
0610300051,2005,02,01,10,2.77
0610300051,2005,02,01,11,3.16
0610300051,2005,02,01,12,3.24
0610300051,2005,02,01,13,3.34
0610300051,2005,02,01,14,2.92
0610300051,2005,02,01,15,2.23
0610300051,2005,02,01,16,0.01
0610300051,2005,02,01,17,4.39
0610300051,2005,02,01,18,99
0610300051,2005,02,01,19,0.81
0610300051,2005,02,01,20,99
0610300051,2005,02,01,21,0.1
0610300051,2005,02,01,22,0.36
0610300051,2005,02,01,23,0.77
0610300051,2005,02,02,00,2.16
0610300051,2005,02,02,01,2.32
0610300051,2005,02,02,02,1.84
0610300051,2005,02,02,03,1.91
0610300051,2005,02,02,04,1.87
0610300051,2005,02,02,05,1.44
0610300051,2005,02,02,06,0.58
0610300051,2005,02,02,07,1.66
0610300051,2005,02,02,08,1.99
0610300051,2005,02,02,09,1.58
0610300051,2005,02,02,10,2.77
0610300051,2005,02,02,11,3.07
0610300051,2005,02,02,12,3.2
0610300051,2005,02,02,13,3.38
0610300051,2005,02,02,14,3.12
0610300051,2005,02,02,15,2.65
0610300051,2005,02,02,16,0.07
0610300051,2005,02,02,17,3.82
0610300051,2005,02,02,18,0.26
0610300051,2005,02,02,19,99
0610300051,2005,02,02,20,99
0610300051,2005,02,02,21,0.65
0610300051,2005,02,02,22,0.71
0610300051,2005,02,02,23,0.75
0610300051,2005,02,03,00,0.49
0610300051,2005,02,03,01,1.29
0610300051,2005,02,03,02,0.92
0610300051,2005,02,03,03,0.33
0610300051,2005,02,03,04,0.46
0610300051,2005,02,03,05,0.15
0610300051,2005,02,03,06,0.22
0610300051,2005,02,03,07,0.5
0610300051,2005,02,03,08,0.78
0610300051,2005,02,03,09,1.26
0610300051,2005,02,03,10,1.73
0610300051,2005,02,03,11,2.3
0610300051,2005,02,03,12,2.8
0610300051,2005,02,03,13,2.66
0610300051,2005,02,03,14,2.71
0610300051,2005,02,03,15,2.19
0610300051,2005,02,03,16,1.39
0610300051,2005,02,03,17,0.17
0610300051,2005,02,03,18,4.37
0610300051,2005,02,03,19,99
0610300051,2005,02,03,20,99
0610300051,2005,02,03,21,99
0610300051,2005,02,03,22,99
0610300051,2005,02,03,23,99
0610300051,2005,02,04,00,99
0610300051,2005,02,04,01,99